Location: Newark
(46.7636°N, 1.8358°W)
Time: 02:02:30
(UTC+00:00)

Vanguard 2 Rocket - Pass Details

Date: 15 October 2019
Orbit: 554 x 3326 km, 32.9° (Epoch: 16 November)

Event Time Altitude Azimuth Distance (km) Brightness Sun altitude
Rises 13:01:53 0° 256° (WSW) 7,310 11.9 32.6°
Reaches altitude 10° 13:07:07 10° 251° (WSW) 6,262 11.8 32.3°
Maximum altitude 13:25:15 49° 186° (S) 3,297 11.2 31.0°
Drops below altitude 10° 13:37:38 10° 117° (ESE) 4,402 10.4 30.0°
Sets 13:40:37 0° 111° (ESE) 5,074 10.6 29.7°
